Flag for U.S.A. Weather past 2 weeks in Nashville, Tennessee, U.S.A.

Now
72 °F

Overcast.


Feels Like: 67 °F
Forecast: 67 / 87 °F
Wind: 3 mph from Southwest

Location: Nashville International Airport

Current Time: Jun 29, 2015 at 11:15:43 PM

Latest Report: Jun 29, 2015 at 10:53 PM


Visibility: 10 mi

Pressure: 29.89 "Hg

Humidity: 97%

Dew point: 71 °F

Location of NashvilleLocation

Historic Weather in Nashville — Graph

°F

Nashville temperature yesterday

Maximum temperature yesterday: 83 °F (at 2:53 PM)
Minimum temperature yesterday: 61 °F (at 4:53 AM)
Average temperature yesterday: 72 °F

Past Weeks' High & Low Weather Summary

 TemperatureHumidityPressure
High94 °F (Jun 16, 2:53 PM)100% (Jun 20, 4:53 AM)30.16 "Hg (Jun 20, 4:53 AM)
Low61 °F (Jun 28, 4:53 AM)34% (Jun 28, 2:53 PM)29.82 "Hg (Jun 20, 2:53 AM)
Average80 °F75%30.00 "Hg
* Reported Jun 14 9:53 PM — Jun 29 9:53 PM, Nashville, Weather by CustomWeather, © 2015

Note: Actual official high and low records may vary slightly from our data, if they occured in-between our weather recording intervals... More about our weather records

Advertising

Nashville weather history for previous 24 hours

 ConditionsComfort  
Time TempWeatherWind HumidityBarometerVisibility
9:53 PM
Mon, Jun 29
72 °FThunderstorms. Partly cloudy.8 mph97%29.90 "Hg9 mi
8:53 PM79 °FThunderstorms. Passing clouds.3 mph72%29.87 "Hg10 mi
7:53 PM81 °FBroken clouds.6 mph69%29.86 "Hg10 mi
6:53 PM84 °FBroken clouds.7 mph63%29.84 "Hg10 mi
5:53 PM85 °FBroken clouds.14 mph61%29.84 "Hg10 mi
4:53 PM85 °FPartly sunny.13 mph59%29.84 "Hg10 mi
3:53 PM85 °FBroken clouds.12 mph57%29.86 "Hg10 mi
2:53 PM85 °FBroken clouds.13 mph57%29.87 "Hg10 mi
1:53 PM84 °FBroken clouds.8 mph59%29.88 "Hg10 mi
12:53 PM84 °FScattered clouds.13 mph57%29.88 "Hg10 mi
11:53 AM83 °FBroken clouds.12 mph61%29.90 "Hg10 mi
10:53 AM82 °FBroken clouds.15 mph63%29.90 "Hg10 mi
9:53 AM79 °FBroken clouds.15 mph67%29.90 "Hg10 mi
8:53 AM76 °FPartly sunny.10 mph74%29.91 "Hg10 mi
7:53 AM72 °FScattered clouds.7 mph84%29.90 "Hg10 mi
6:53 AM69 °FBroken clouds.7 mph93%29.90 "Hg10 mi
5:53 AM71 °FOvercast.8 mph76%29.91 "Hg10 mi
4:53 AM69 °FPassing clouds.9 mph76%29.90 "Hg10 mi
3:53 AM67 °FPartly cloudy.6 mph85%29.90 "Hg10 mi
2:53 AM65 °FPassing clouds.5 mph91%29.90 "Hg10 mi
1:53 AM65 °FPassing clouds.5 mph91%29.91 "Hg10 mi
12:53 AM66 °FPassing clouds.5 mph87%29.92 "Hg10 mi
11:53 PM
Sun, Jun 28
67 °FPassing clouds.6 mph85%29.92 "Hg10 mi
Weather by CustomWeather, © 2015

See weather overviewHow to use our weather pages